Home   Weather   Lindau (Bodensee)   Past weeks

Flag for Germany Past Weather in Lindau (Bodensee), Bavaria, Germany — Yesterday and Last 2 Weeks

Now
41 °F

Quite cool.


Feels Like: 41 °F
Forecast: 26 / 40 °F
Wind: 2 mph from Northwest

Location: Bregenz

Current Time: Dec 3, 2016 at 3:02:13 pm

Latest Report: Dec 3, 2016 at 2:00 pm


Visibility: N/A

Pressure: 30.15 "Hg

Humidity: 69%

Dew Point: 32 °F

Location of Lindau (Bodensee)Location

Past Weather in Lindau (Bodensee) — Graph

°F

Lindau (Bodensee) Temperature Yesterday

Maximum temperature yesterday: 40 °F (at 2:00 pm)
Minimum temperature yesterday: 28 °F (at 7:00 am)
Average temperature yesterday: 32 °F

High & Low Weather Summary for the Past Weeks

 TemperatureHumidityPressure
High66 °F (Nov 22, 12:00 am)96% (Nov 20, 2:00 am)30.66 "Hg (Nov 20, 2:00 am)
Low24 °F (Nov 29, 7:00 am)34% (Nov 22, 12:00 am)29.60 "Hg (Nov 21, 1:00 pm)
Average42 °F78%30.08 "Hg
* Reported Nov 18 2:00 pm — Dec 3 1:00 pm, Lindau (Bodensee), Weather by CustomWeather, © 2016

Note: Actual official high and low records may vary slightly from our data, if they occured in-between our weather recording intervals... More about our weather records

Advertising

Lindau (Bodensee) Weather History for the Previous 24 Hours

Scroll right to see more
 ConditionsComfort  
Time TempWeatherWind HumidityBarometerVisibility
1:00 pm
Sat, Dec 3
41 °FPassing clouds.1 mph70%30.15 "Hg4 mi
12:00 pm39 °FChilly.No wind73%30.17 "HgN/A
11:00 am36 °FChilly.No wind79%30.19 "HgN/A
10:00 am30 °FScattered clouds.No wind93%30.21 "Hg4 mi
9:00 am27 °FChilly.2 mph88%30.20 "HgN/A
8:00 am27 °FChilly.2 mph88%30.19 "HgN/A
7:00 am28 °FChilly.2 mph88%30.19 "HgN/A
6:00 am27 °FChilly.1 mph89%30.18 "HgN/A
5:00 am27 °FChilly.1 mph90%30.19 "HgN/A
4:00 am28 °FChilly.No wind90%30.19 "HgN/A
3:00 am29 °FChilly.1 mph94%30.18 "HgN/A
2:00 am30 °FChilly.1 mph94%30.19 "HgN/A
1:00 am29 °FChilly.1 mph92%30.21 "HgN/A
12:00 am29 °FChilly.1 mph92%30.22 "HgN/A
11:00 pm
Fri, Dec 2
30 °FChilly.1 mph95%30.21 "HgN/A
10:00 pm31 °FChilly.1 mph93%30.21 "HgN/A
9:00 pm31 °FChilly.1 mph92%30.22 "HgN/A
8:00 pm32 °FChilly.1 mph93%30.23 "HgN/A
7:00 pm32 °FChilly.1 mph94%30.23 "HgN/A
6:00 pm33 °FChilly.1 mph92%30.23 "HgN/A
5:00 pm33 °FChilly.1 mph89%30.22 "HgN/A
4:00 pm37 °FChilly.1 mph81%30.20 "HgN/A
3:00 pm39 °FChilly.1 mph72%30.20 "HgN/A
Weather by CustomWeather, © 2016

See weather overviewHow to use our weather pages